When you browse on this site, cookies collect data to enhance your experience and personalize the content and advertising you see.
Visit our Privacy Policy to learn more. By continuing to use the site, you agree to this use of cookies and data.
  • In Spain
  • List of Countries
  • For 7 days
  • Water Temperature
  • Weather Map
  • Weather Widgets
  • user-avatar
    Login

    Hourly Weather Shibam

    Today, 17 November, Sunday

    Time Temperature Precipitation Wind Pressure Humidity
    00:00 +12°C° 0.1 mm 0 mps 558 mmHg 62%
    01:00 +12°C° 0 mm 0 mps 558 mmHg 62%
    02:00 +12°C° 0 mm 1 mps 557 mmHg 62%
    03:00 +12°C° 0 mm 1 mps 557 mmHg 62%
    04:00 +12°C° 0 mm 1 mps 557 mmHg 62%
    05:00 +11°C° 0 mm 1 mps 557 mmHg 63%
    06:00 +10°C° 0 mm 0 mps 557 mmHg 63%
    07:00 +12°C° 0 mm 1 mps 558 mmHg 58%
    08:00 +14°C° 0 mm 1 mps 559 mmHg 52%
    09:00 +15°C° 0 mm 1 mps 560 mmHg 46%
    10:00 +16°C° 0 mm 2 mps 560 mmHg 43%
    11:00 +17°C° 0 mm 2 mps 560 mmHg 39%
    12:00 +18°C° 0 mm 2 mps 560 mmHg 36%
    13:00 +18°C° 0 mm 3 mps 560 mmHg 39%
    14:00 +18°C° 0 mm 3 mps 560 mmHg 43%
    15:00 +18°C° 0 mm 3 mps 559 mmHg 47%
    16:00 +17°C° 0.2 mm 3 mps 559 mmHg 53%
    17:00 +17°C° 0.2 mm 2 mps 559 mmHg 60%
    18:00 +16°C° 0.2 mm 2 mps 559 mmHg 67%
    19:00 +15°C° 0.3 mm 2 mps 559 mmHg 65%
    20:00 +15°C° 0.3 mm 2 mps 559 mmHg 64%
    21:00 +15°C° 0.3 mm 2 mps 560 mmHg 62%
    22:00 +15°C° 0.1 mm 2 mps 560 mmHg 61%
    23:00 +14°C° 0.1 mm 1 mps 559 mmHg 60%

    Tomorrow, 18 November, Monday

    Time Temperature Precipitation Wind Pressure Humidity
    00:00 +14°C° 0.1 mm 1 mps 559 mmHg 59%
    01:00 +14°C° 0 mm 1 mps 559 mmHg 61%
    02:00 +12°C° 0 mm 0 mps 558 mmHg 63%
    03:00 +12°C° 0 mm 0 mps 558 mmHg 64%
    04:00 +11°C° 0 mm 0 mps 558 mmHg 66%
    05:00 +11°C° 0 mm 0 mps 558 mmHg 67%
    06:00 +10°C° 0 mm 0 mps 558 mmHg 68%
    07:00 +12°C° 0 mm 0 mps 559 mmHg 62%
    08:00 +14°C° 0 mm 1 mps 560 mmHg 56%
    09:00 +16°C° 0 mm 1 mps 561 mmHg 50%
    10:00 +18°C° 0 mm 1 mps 561 mmHg 47%
    11:00 +18°C° 0 mm 2 mps 561 mmHg 44%
    12:00 +19°C° 0 mm 2 mps 561 mmHg 41%
    13:00 +19°C° 0.1 mm 2 mps 561 mmHg 45%
    14:00 +19°C° 0.1 mm 3 mps 560 mmHg 49%
    15:00 +18°C° 0.1 mm 3 mps 560 mmHg 54%
    16:00 +18°C° 0.2 mm 3 mps 560 mmHg 59%
    17:00 +17°C° 0.2 mm 2 mps 560 mmHg 63%
    18:00 +16°C° 0.2 mm 2 mps 559 mmHg 68%
    19:00 +16°C° 0.3 mm 1 mps 560 mmHg 67%
    20:00 +16°C° 0.3 mm 1 mps 560 mmHg 66%
    21:00 +15°C° 0.3 mm 1 mps 560 mmHg 65%
    22:00 +15°C° 0.1 mm 1 mps 560 mmHg 64%
    23:00 +15°C° 0.1 mm 1 mps 560 mmHg 62%

    Day after tomorrow, 19 November, Tuesday

    Time Temperature Precipitation Wind Pressure Humidity
    00:00 +14°C° 0.1 mm 0 mps 559 mmHg 61%
    01:00 +13°C° 0 mm 0 mps 559 mmHg 62%
    02:00 +13°C° 0 mm 0 mps 559 mmHg 63%
    03:00 +12°C° 0 mm 0 mps 558 mmHg 64%
    04:00 +12°C° 0 mm 0 mps 558 mmHg 65%
    05:00 +12°C° 0 mm 0 mps 558 mmHg 65%
    06:00 +11°C° 0 mm 0 mps 558 mmHg 66%
    07:00 +14°C° 0 mm 1 mps 559 mmHg 61%
    08:00 +15°C° 0 mm 1 mps 560 mmHg 55%
    09:00 +18°C° 0 mm 1 mps 561 mmHg 50%
    10:00 +17°C° 0 mm 2 mps 561 mmHg 48%
    11:00 +18°C° 0 mm 3 mps 561 mmHg 47%
    12:00 +19°C° 0 mm 3 mps 561 mmHg 45%
    13:00 +19°C° 0 mm 3 mps 561 mmHg 48%
    14:00 +19°C° 0 mm 4 mps 560 mmHg 52%
    15:00 +19°C° 0 mm 4 mps 560 mmHg 55%
    16:00 +18°C° 0.2 mm 3 mps 559 mmHg 61%
    17:00 +17°C° 0.2 mm 2 mps 559 mmHg 67%
    18:00 +16°C° 0.2 mm 2 mps 559 mmHg 73%
    19:00 +16°C° 0.1 mm 1 mps 559 mmHg 72%
    20:00 +16°C° 0.1 mm 1 mps 559 mmHg 72%
    21:00 +14°C° 0.1 mm 0 mps 560 mmHg 72%
    22:00 +14°C° 0.1 mm 0 mps 559 mmHg 71%
    23:00 +14°C° 0.1 mm 0 mps 559 mmHg 69%

    20 November, Wednesday

    Time Temperature Precipitation Wind Pressure Humidity
    00:00 +14°C° 0.1 mm 0 mps 559 mmHg 68%
    01:00 +13°C° 0 mm 0 mps 558 mmHg 69%
    02:00 +13°C° 0 mm 0 mps 558 mmHg 69%
    03:00 +12°C° 0 mm 0 mps 557 mmHg 69%
    04:00 +12°C° 0.1 mm 0 mps 557 mmHg 70%
    05:00 +11°C° 0.1 mm 0 mps 557 mmHg 70%
    06:00 +11°C° 0.1 mm 0 mps 557 mmHg 71%
    07:00 +13°C° 0 mm 0 mps 558 mmHg 65%
    08:00 +15°C° 0 mm 1 mps 559 mmHg 59%
    09:00 +16°C° 0 mm 1 mps 560 mmHg 54%
    10:00 +18°C° 0.1 mm 1 mps 560 mmHg 51%
    11:00 +18°C° 0.1 mm 2 mps 560 mmHg 49%
    12:00 +19°C° 0.1 mm 3 mps 560 mmHg 46%
    13:00 +18°C° 0.1 mm 3 mps 560 mmHg 50%
    14:00 +18°C° 0.1 mm 3 mps 559 mmHg 53%
    15:00 +18°C° 0.1 mm 3 mps 559 mmHg 56%
    16:00 +17°C° 0.3 mm 2 mps 559 mmHg 59%
    17:00 +17°C° 0.3 mm 2 mps 559 mmHg 62%
    18:00 +16°C° 0.3 mm 1 mps 559 mmHg 64%
    19:00 +16°C° 0.4 mm 1 mps 559 mmHg 61%
    20:00 +16°C° 0.4 mm 2 mps 559 mmHg 58%
    21:00 +16°C° 0.4 mm 2 mps 560 mmHg 56%
    22:00 +15°C° 0.1 mm 2 mps 559 mmHg 57%
    23:00 +14°C° 0.1 mm 3 mps 559 mmHg 59%

    21 November, Thursday

    Time Temperature Precipitation Wind Pressure Humidity
    00:00 +14°C° 0.1 mm 3 mps 559 mmHg 60%
    01:00 +14°C° 0.1 mm 2 mps 558 mmHg 63%
    02:00 +13°C° 0.1 mm 2 mps 558 mmHg 66%
    03:00 +13°C° 0.1 mm 2 mps 558 mmHg 68%
    04:00 +12°C° 0 mm 2 mps 558 mmHg 71%
    05:00 +12°C° 0 mm 2 mps 558 mmHg 74%
    06:00 +10°C° 0 mm 2 mps 558 mmHg 76%
    07:00 +12°C° 0 mm 2 mps 558 mmHg 72%
    08:00 +13°C° 0 mm 2 mps 559 mmHg 67%
    09:00 +14°C° 0 mm 2 mps 560 mmHg 63%
    10:00 +14°C° 0 mm 3 mps 560 mmHg 58%
    11:00 +17°C° 0 mm 3 mps 560 mmHg 53%
    12:00 +18°C° 0 mm 3 mps 561 mmHg 48%
    13:00 +18°C° 0.3 mm 3 mps 560 mmHg 50%
    14:00 +17°C° 0.3 mm 3 mps 560 mmHg 52%
    15:00 +17°C° 0.3 mm 3 mps 559 mmHg 55%
    16:00 +16°C° 0.6 mm 3 mps 559 mmHg 61%
    17:00 +15°C° 0.6 mm 2 mps 559 mmHg 68%
    18:00 +14°C° 0.6 mm 1 mps 558 mmHg 74%
    19:00 +14°C° 0.6 mm 1 mps 559 mmHg 74%
    20:00 +14°C° 0.6 mm 1 mps 559 mmHg 75%
    21:00 +14°C° 0.6 mm 1 mps 559 mmHg 75%
    22:00 +13°C° 0.2 mm 1 mps 559 mmHg 76%
    23:00 +13°C° 0.2 mm 1 mps 559 mmHg 77%

    22 November, Friday

    Time Temperature Precipitation Wind Pressure Humidity
    00:00 +13°C° 0.2 mm 1 mps 559 mmHg 79%
    01:00 +13°C° 0.1 mm 1 mps 559 mmHg 78%
    02:00 +13°C° 0.1 mm 1 mps 559 mmHg 77%
    03:00 +13°C° 0.1 mm 1 mps 559 mmHg 77%
    04:00 +12°C° 0 mm 1 mps 559 mmHg 79%
    05:00 +12°C° 0 mm 1 mps 559 mmHg 81%
    06:00 +12°C° 0 mm 1 mps 559 mmHg 83%
    07:00 +12°C° 0 mm 1 mps 559 mmHg 78%
    08:00 +13°C° 0 mm 1 mps 560 mmHg 72%
    09:00 +14°C° 0 mm 1 mps 561 mmHg 66%
    10:00 +15°C° 0.2 mm 1 mps 561 mmHg 61%
    11:00 +16°C° 0.2 mm 2 mps 561 mmHg 57%
    12:00 +17°C° 0.2 mm 2 mps 562 mmHg 52%
    13:00 +17°C° 0.8 mm 2 mps 561 mmHg 54%
    14:00 +17°C° 0.8 mm 2 mps 560 mmHg 57%
    15:00 +17°C° 0.8 mm 2 mps 560 mmHg 59%
    16:00 +16°C° 0.8 mm 2 mps 560 mmHg 61%
    17:00 +16°C° 0.8 mm 2 mps 560 mmHg 63%
    18:00 +15°C° 0.8 mm 2 mps 560 mmHg 64%
    19:00 +15°C° 0.2 mm 2 mps 560 mmHg 66%
    20:00 +14°C° 0.2 mm 2 mps 560 mmHg 68%
    21:00 +14°C° 0.2 mm 2 mps 560 mmHg 70%
    22:00 +13°C° 0 mm 2 mps 560 mmHg 72%
    23:00 +13°C° 0 mm 1 mps 560 mmHg 73%
    Show more